Regional Weather Roundup
Issued by NWS Goodland, KS

Home | Current Version | Previous Version | Graphics & Text | Print | Product List | Glossary On
Versions: 1 2 3 4 5 6 7 8 9 10 11 12 13 14 15 16 17 18 19 20 21 22 23 24 25 26 27 28 29 30 31 32 33 34 35 36 37 38 39 40 41 42 43 44 45 46 47 48 49 50
000
ASUS43 KGLD 232308
RWRGLD

GOODLAND FORECAST AREA HOURLY WEATHER ROUNDUP
NATIONAL WEATHER SERVICE GOODLAND KS
500 PM MDT FRI JUN 23 2017

...OFFICIAL OBSERVATIONS...

CITY           SKY/WX    TMP DP  RH WIND       PRES   REMARKS
GOODLAND KS    CLOUDY    68  49  50 SW9       30.16F
HILL CITY KS   MOSUNNY   81  44  27 VRB5      30.08S
IMPERIAL NEB   SUNNY     76  34  21 W8        30.13F
MCCOOK NEB     MOSUNNY   80  35  19 NW17G25   30.10S
AKRON CO       PTSUNNY   68  43  40 VRB6      30.21F
BURLINGTON CO  CLOUDY    66  47  50 N3        30.21S
LIMON CO       CLOUDY    63  43  48 E6        30.25F
$$

...UNOFFICIAL OBSERVATIONS...

CITY           SKY/WX    TMP DP  RH WIND       PRES   REMARKS
LENORA KS        N/A     78  32  18 MISG        N/A
NORTON KS      SUNNY     79  30  17 NW13G18   30.07S
SHARON SPRINGS   N/A     68  49  49 CALM        N/A
TRENTON NEB      N/A     75  32  20 NW7         N/A
KIT CARSON CO    N/A     68  46  45 MISG        N/A
YUMA CO        FAIR      70  41  35 NW7       30.19S
$$



USA.gov is the U.S. government's official web portal to all federal, state and local government web resources and services.